This demonstration page uses our WeatherBlox Daily Observations layout. Learn more.

Left ArrowRight Arrow

39.51506, -84.39828

Hourly Observations for January 23, 2021

Temp ( °F °C ) Dew Point ( °F °C ) Humidity (%) Winds ( mph kmh ) Pressure ( in mb ) Visibility ( mi km ) Precip ( " mm )
12:15 am 00:15 Clear 20 -6.9 12 -11 73 73 NNW 10 17 30.32 1027 10 16.0934 N/A
12:35 am 00:35 Clear 19 -7.2 11 -11.7 71 71 N 7 11 30.33 1027 10 16.0934 N/A
12:55 am 00:55 Clear 18 -7.8 11 -11.7 74 74 NW 5 7 30.33 1027 10 16.0934 N/A
1:15 am 01:15 Clear 18 -7.6 9 -12.6 68 68 NW 8 13 30.35 1028 10 16.0934 N/A
1:35 am 01:35 Clear 18 -7.8 9 -12.7 68 68 NW 6 9 30.35 1028 10 16.0934 N/A
1:55 am 01:55 Clear 17 -8.2 9 -12.7 70 70 NW 5 7 30.36 1028 10 16.0934 N/A
2:15 am 02:15 Clear 17 -8.3 9 -12.6 71 71 NW 6 9 30.37 1028 10 16.0934 N/A
2:35 am 02:35 Clear 16 -8.7 9 -12.6 74 74 NW 5 7 30.38 1029 10 16.0934 N/A
2:55 am 02:55 Clear 17 -8.5 10 -12.4 74 74 NW 5 7 30.39 1029 10 16.0934 N/A
3:15 am 03:15 Clear 17 -8.6 10 -12.4 74 74 NW 5 7 30.4 1029 10 16.0934 N/A
3:35 am 03:35 Clear 16 -8.8 10 -12.4 75 75 N N/A 30.4 1029 10 16.0934 N/A
3:55 am 03:55 Clear 16 -8.9 10 -12.5 75 75 WNW 3 6 30.4 1029 10 16.0934 N/A
4:15 am 04:15 Clear 16 -9.1 10 -12.5 77 77 WNW 3 6 30.4 1030 10 16.0934 N/A
4:35 am 04:35 Clear 15 -9.3 10 -12.4 78 78 N N/A 30.4 1030 10 16.0934 N/A
4:55 am 04:55 Clear 15 -9.2 10 -12.2 79 79 N N/A 30.4 1030 10 16.0934 N/A
5:15 am 05:15 Clear 15 -9.6 10 -12.2 82 82 N N/A 30.4 1030 10 16.0934 N/A
5:35 am 05:35 Clear 14 -9.8 10 -12.5 81 81 N N/A 30.41 1030 10 16.0934 N/A
5:55 am 05:55 Clear 14 -9.8 10 -12.5 81 81 N N/A 30.41 1030 10 16.0934 N/A
6:15 am 06:15 Clear 15 -9.7 10 -12.5 80 80 N N/A 30.42 1030 10 16.0934 N/A
6:35 am 06:35 Clear 14 -9.9 9 -12.6 81 81 N N/A 30.43 1031 10 16.0934 N/A
6:55 am 06:55 Clear 15 -9.7 10 -12.5 80 80 N N/A 30.45 1031 10 16.0934 N/A
7:15 am 07:15 Clear 14 -9.8 10 -12.5 81 81 N N/A 30.46 1032 10 16.0934 N/A
7:35 am 07:35 Clear 14 -10.1 9 -12.7 81 81 N N/A 30.46 1032 10 16.0934 N/A
7:55 am 07:55 Sunny 13 -10.7 9 -12.8 85 85 N N/A 30.47 1032 10 16.0934 N/A
8:15 am 08:15 Sunny 13 -10.7 10 -12.1 90 90 N N/A 30.48 1032 10 16.0934 N/A
8:35 am 08:35 Sunny 14 -10.1 11 -11.4 90 90 N N/A 30.47 1032 10 16.0934 N/A
8:55 am 08:55 Sunny 15 -9.3 11 -11.4 85 85 N N/A 30.47 1032 10 16.0934 N/A
9:15 am 09:15 Sunny 17 -8.5 12 -11 82 82 N N/A 30.48 1032 10 16.0934 N/A
9:35 am 09:35 Sunny 18 -7.7 12 -11.2 76 76 N N/A 30.48 1032 10 16.0934 N/A
9:55 am 09:55 Sunny 19 -7.3 13 -10.8 76 76 ENE 3 6 30.49 1032 10 16.0934 N/A
10:15 am 10:15 Sunny 21 -6.2 13 -10.4 72 72 NE 6 9 30.49 1033 10 16.0934 N/A
10:35 am 10:35 Sunny 21 -6 12 -11.2 67 67 ENE 6 9 30.5 1033 10 16.0934 N/A
10:55 am 10:55 Sunny 23 -5 12 -10.9 64 64 E 7 11 30.5 1033 10 16.0934 N/A
11:15 am 11:15 Sunny 24 -4.7 13 -10.8 63 63 ENE 3 6 30.49 1032 10 16.0934 N/A
11:35 am 11:35 Sunny 24 -4.2 12 -10.9 60 60 E 3 6 30.5 1033 10 16.0934 N/A
11:55 am 11:55 Sunny 24 -4.2 12 -11.2 59 59 N N/A 30.49 1032 10 16.0934 N/A
12:15 pm 12:15 Sunny 27 -3 12 -11.3 53 53 E 5 7 30.47 1032 10 16.0934 N/A
12:35 pm 12:35 Sunny 26 -3.2 11 -11.6 53 53 N N/A 30.46 1032 10 16.0934 N/A
12:55 pm 12:55 Sunny 28 -2.5 11 -11.4 51 51 W 5 7 30.45 1031 10 16.0934 N/A
1:15 pm 13:15 Sunny 28 -2.3 11 -11.6 49 49 NE 5 7 30.44 1031 10 16.0934 N/A
1:35 pm 13:35 Sunny 28 -2.3 11 -11.8 49 49 N N/A 30.43 1031 10 16.0934 N/A
1:55 pm 13:55 Sunny 30 -0.9 11 -11.6 45 45 NE 6 9 30.43 1030 10 16.0934 N/A
2:15 pm 14:15 Sunny 31 -0.8 11 -11.4 45 45 E 5 7 30.42 1030 10 16.0934 N/A
2:35 pm 14:35 Sunny 30 -0.9 11 -11.8 44 44 ENE 5 7 30.42 1030 10 16.0934 N/A
2:55 pm 14:55 Sunny 31 -0.7 11 -11.5 44 44 N N/A 30.41 1030 10 16.0934 N/A
3:15 pm 15:15 Sunny 32 -0.2 11 -11.5 43 43 N N/A 30.41 1030 10 16.0934 N/A
3:35 pm 15:35 Sunny 32 undefined 11 -11.8 41 41 E 3 6 30.41 1030 10 16.0934 N/A
3:55 pm 15:55 Sunny 32 0.2 11 -11.4 42 42 E 5 7 30.4 1029 10 16.0934 N/A
4:15 pm 16:15 Sunny 33 0.3 11 -11.6 41 41 E 3 6 30.39 1029 10 16.0934 N/A
4:35 pm 16:35 Sunny 32 -0.2 10 -12 41 41 ENE 3 6 30.4 1029 10 16.0934 N/A
4:55 pm 16:55 Sunny 32 undefined 11 -11.5 42 42 E 7 11 30.4 1029 10 16.0934 N/A
5:15 pm 17:15 Sunny 31 -0.4 12 -11.3 44 44 ENE 6 9 30.4 1029 10 16.0934 N/A
5:35 pm 17:35 Sunny 30 -0.9 12 -11.1 46 46 ENE 6 9 30.39 1029 10 16.0934 N/A
5:55 pm 17:55 Clear 30 -1.2 11 -11.5 46 46 ESE 3 6 30.4 1029 10 16.0934 N/A
6:15 pm 18:15 Clear 29 -1.5 12 -11.3 48 48 ESE 5 7 30.4 1029 10 16.0934 N/A
6:35 pm 18:35 Clear 29 -1.8 12 -11.1 49 49 E 5 7 30.41 1030 10 16.0934 N/A
6:55 pm 18:55 Clear 28 -2.1 13 -10.8 52 52 E 5 7 30.42 1030 10 16.0934 N/A
7:15 pm 19:15 Clear 26 -3.5 15 -9.6 63 63 E 3 6 30.42 1030 10 16.0934 N/A
7:35 pm 19:35 Clear 26 -3.1 16 -9.1 64 64 N N/A 30.41 1030 10 16.0934 N/A
7:55 pm 19:55 Clear 26 -3.1 16 -8.7 66 66 N N/A 30.41 1030 10 16.0934 N/A
8:15 pm 20:15 Clear 26 -3.1 14 -10 59 59 E 5 7 30.4 1030 10 16.0934 N/A
8:35 pm 20:35 Clear 26 -3.4 13 -10.8 57 57 ENE 5 7 30.39 1029 10 16.0934 N/A
8:55 pm 20:55 Clear 25 -4 15 -9.2 67 67 E 3 6 30.39 1029 10 16.0934 N/A
9:15 pm 21:15 Clear 24 -4.6 15 -9.7 68 68 N N/A 30.39 1029 10 16.0934 N/A
9:35 pm 21:35 Clear 23 -5.2 16 -9.1 74 74 NNE 3 6 30.39 1029 10 16.0934 N/A
9:55 pm 21:55 Clear 23 -5.2 16 -8.8 76 76 NE 3 6 30.39 1029 10 16.0934 N/A
10:15 pm 22:15 Clear 22 -5.7 16 -8.9 78 78 N N/A 30.39 1029 10 16.0934 N/A
10:35 pm 22:35 Clear 22 -5.3 17 -8.3 80 80 NE 5 7 30.38 1029 10 16.0934 N/A
10:55 pm 22:55 Clear 24 -4.6 17 -8.2 76 76 ENE 5 7 30.38 1029 10 16.0934 N/A
11:15 pm 23:15 Clear 25 -4.1 16 -9 69 69 ENE 7 11 30.37 1028 10 16.0934 N/A
11:35 pm 23:35 Partly Cloudy 26 -3.3 15 -9.7 62 62 N N/A 30.38 1029 10 16.0934 N/A
11:55 pm 23:55 Partly Cloudy 26 -3.3 16 -9.1 65 65 N N/A 30.37 1029 10 16.0934 N/A

Powered by AerisWeather